Regional Weather Roundup
Issued by NWS

Home | Current Version | Previous Version | Graphics & Text | Print | Product List | Glossary On
Versions: 1 2 3 4 5 6 7 8 9 10 11 12 13 14 15 16 17 18 19 20 21 22 23 24 25 26 27 28 29 30 31 32 33 34 35 36 37 38 39 40 41 42 43 44 45 46 47 48 49 50
000
ASUS43 KIND 140259
RWRIN

WEATHER ROUNDUP FOR INDIANA
NATIONAL WEATHER SERVICE INDIANAPOLIS IN
1000 PM EST WED DEC 13 2017

NOTE: "FAIR" INDICATES FEW OR NO CLOUDS BELOW 12,000 FEET WITH NO
SIGNIFICANT WEATHER AND/OR OBSTRUCTIONS TO VISIBILITY.

* - STATION DOES NOT REPORT WEATHER SUCH AS PRECIPITATION OR FOG.

+ - STATION NOT QUALITY CONTROLLED BY THE NATIONAL WEATHER SERVICE.
    USE DATA WITH CAUTION...ESPECIALLY DEWPOINT AND RELATIVE
    HUMIDITY OBSERVATIONS.

INZ001>003-010>013-019-020-140400-
NORTHWEST INDIANA

CITY           SKY/WX    TMP DP  RH WIND       PRES   REMARKS
GARY /AIRPORT/ FLURRIES  30  19  64 NW21G41   29.61R WCI  17
MICHIGAN CITY+ LGT SNOW  32  28  86 N22       29.55R WCI  19
MONTICELLO +   CLOUDY    31  21  66 NW28G35   29.56R WCI  17
RENSSELAER +   CLOUDY    30  18  59 W16G31    29.60R WCI  19

$$

LMZ046-743>745-140400-
SOUTHERN LAKE MICHIGAN

STATION/POSITION TIME  TEMP    WIND        PRES    WAVE
                       AIR SEA DIR/SP/G            HT
                 (UTC) (F)     (DEG/KT/KT) (MB)    (FT)
BURNS HARBOR     0240   31     310/ 27/ 34 1001.0R
MICHIGAN CITY    0230   31     280/ 37/ 40   N/A

$$

INZ004-005-014>016-021>024-140400-
NORTH CENTRAL INDIANA

CITY           SKY/WX    TMP DP  RH WIND       PRES   REMARKS
GOSHEN         LGT SNOW  30  27  88 W22G31    29.45R FOG     WCI  17
SOUTH BEND     LGT SNOW  29  28  96 NW25G33   29.50R FOG     WCI  14

$$

INZ006>009-017-018-025>027-140400-
NORTHEAST INDIANA

CITY           SKY/WX    TMP DP  RH WIND       PRES   REMARKS
FORT WAYNE     CLOUDY    33  25  72 W23G40    29.44R WCI  21
KENDALLVILLE + LGT SNOW  31  29  92 W12G22    29.39R WCI  21

$$

INZ028-029-035-036-043>045-051>053-140400-
WEST CENTRAL INDIANA

CITY           SKY/WX    TMP DP  RH WIND       PRES   REMARKS
LAFAYETTE      CLOUDY    32  25  75 NW24G35   29.60R WCI  19
TERRE HAUTE    FLURRIES  38  29  70 NW18G32   29.66R WCI  28

$$

INZ030>032-037>040-046>048-054>057-064-065-140400-
CENTRAL INDIANA

CITY           SKY/WX    TMP DP  RH WIND       PRES   REMARKS
INDIANAPOLIS   CLOUDY    37  26  64 W30G40    29.58R WCI  24
-EAGLE CREEK   CLOUDY    37  26  64 NW30G39   29.56R WCI  24
KOKOMO +       CLOUDY    33  25  72 W25G37    29.52R WCI  20
MT COMFORT *+  CLOUDY    36  30  80 W33G45    29.55R WCI  22
SHELBYVILLE    CLOUDY    39  27  62 W24G32    29.55R WCI  28

$$

INZ033-034-041-042-049-050-058-059-140400-
EAST CENTRAL INDIANA

CITY           SKY/WX    TMP DP  RH WIND       PRES   REMARKS
MUNCIE         CLOUDY    35  26  69 W24G46    29.50R WCI  23
RICHMOND +     DRIZZLE   34  32  93 W30G45    29.48R WCI  20

$$

INZ060-061-067>069-081>083-085>088-140400-
SOUTHWEST INDIANA

CITY           SKY/WX    TMP DP  RH WIND       PRES   REMARKS
EVANSVILLE     CLEAR     44  33  65 W7        29.71R
HUNTINGBURG +  PTCLDY    43  32  65 W14G23    29.68R

$$

INZ062-063-066-070>080-084-089>092-140400-
SOUTH CENTRAL AND SOUTHEAST INDIANA

CITY           SKY/WX    TMP DP  RH WIND       PRES   REMARKS
BLOOMINGTON    CLOUDY    39  28  64 NW23G35   29.61R WCI  28
MADISON *+     CLOUDY    43  30  61 W26G35    29.60R
SEYMOUR +      CLOUDY    43  30  61 W18G32    29.60R

$$





USA.gov is the U.S. government's official web portal to all federal, state and local government web resources and services.